Location: North Bay
(46.3091°N, 79.4608°W)
Time: 07:01:21
(UTC-05:00)

N. Korean satellite - Pass Details

Date: 29 October 2019
Orbit: 456 x 506 km, 97.2° (Epoch: 21 November)

Event Time Altitude Azimuth Distance (km) Brightness Sun altitude
Rises 06:22:38 0° 27° (NNE) 2,593 10.6 -16.4°
Reaches altitude 10° 06:25:09 10° 45° (NE) 1,711 9.9 -15.9°
Maximum altitude 06:27:55 20° 93° (E) 1,219 9.6 -15.4°
Drops below altitude 10° 06:30:40 10° 142° (SE) 1,712 9.9 -15.0°
Sets 06:33:11 0° 159° (SSE) 2,594 10.6 -14.5°
